Time,TemperatureF,DewpointF,PressureIn,WindDirection,WindDirectionDegrees,WindSpeedMPH,WindSpeedGustMPH,Humidity,HourlyPrecipIn,Conditions,Clouds,dailyrainin,SoftwareType,DateUTC
2013-10-21 00:00:00,35.5,26.0,29.87,SSW,210,0.0,2.0,68,0.00,RA,,0.00,WeatherDisplay:10.37,2013-10-21 05:00:00,
2013-10-21 00:30:00,34.1,26.0,29.87,SSW,210,0.0,1.0,72,0.00,CLR,,0.00,WeatherDisplay:10.37,2013-10-21 05:30:00,
2013-10-21 01:00:00,33.2,25.8,29.89,SSW,210,0.0,0.0,74,0.00,CLR,,0.00,WeatherDisplay:10.37,2013-10-21 06:00:00,
2013-10-21 01:30:00,33.4,25.3,29.88,SSW,210,0.0,1.0,72,0.00,CLR,,0.00,WeatherDisplay:10.37,2013-10-21 06:30:00,
2013-10-21 02:00:00,33.1,25.7,29.88,SSW,210,1.0,2.0,74,0.00,CLR,,0.00,WeatherDisplay:10.37,2013-10-21 07:00:00,
2013-10-21 02:30:00,33.8,25.0,29.87,SSW,210,0.0,2.0,70,0.00,CLR,,0.00,WeatherDisplay:10.37,2013-10-21 07:30:00,
2013-10-21 03:00:00,32.9,24.9,29.88,SSW,210,0.0,0.0,72,0.00,CLR,,0.00,WeatherDisplay:10.37,2013-10-21 08:00:00,
2013-10-21 03:30:00,31.6,24.6,29.88,SSW,210,0.0,1.0,75,0.00,CLR,,0.00,WeatherDisplay:10.37,2013-10-21 08:30:00,
2013-10-21 04:00:00,31.2,25.1,29.89,SSW,210,1.0,2.0,78,0.00,CLR,,0.00,WeatherDisplay:10.37,2013-10-21 09:00:00,
2013-10-21 04:30:00,30.6,24.9,29.89,SSW,210,0.0,2.0,79,0.00,CLR,,0.00,WeatherDisplay:10.37,2013-10-21 09:30:00,
2013-10-21 05:00:00,30.3,24.9,29.89,SSW,210,0.0,2.0,80,0.00,CLR,,0.00,WeatherDisplay:10.37,2013-10-21 10:00:00,
2013-10-21 05:30:00,30.3,24.9,29.92,SSW,210,0.0,2.0,80,0.00,CLR,,0.00,WeatherDisplay:10.37,2013-10-21 10:30:00,
2013-10-21 06:00:00,30.0,24.6,29.92,SSW,210,0.0,2.0,80,0.00,CLR,,0.00,WeatherDisplay:10.37,2013-10-21 11:00:00,
2013-10-21 06:30:00,32.4,25.7,29.95,WSW,255,2.0,7.0,76,0.00,CLR,,0.00,WeatherDisplay:10.37,2013-10-21 11:30:00,
2013-10-21 07:00:00,37.3,25.1,29.94,SW,229,0.0,6.0,61,0.00,CLR,,0.00,WeatherDisplay:10.37,2013-10-21 12:00:00,
2013-10-21 07:30:00,34.0,24.2,30.07,SW,229,0.0,5.0,67,0.00,CLR,,0.00,WeatherDisplay:10.37,2013-10-21 12:30:00,
2013-10-21 08:00:00,30.7,23.0,30.10,SW,229,0.0,2.0,73,0.00,CLR,,0.00,WeatherDisplay:10.37,2013-10-21 13:00:00,
2013-10-21 08:30:00,29.8,23.1,30.16,SW,229,0.0,3.0,76,0.00,CLR,,0.00,WeatherDisplay:10.37,2013-10-21 13:30:00,
2013-10-21 09:00:00,34.9,25.1,30.14,SW,229,3.0,5.0,67,0.00,CLR,,0.00,WeatherDisplay:10.37,2013-10-21 14:00:00,
2013-10-21 09:30:00,43.6,29.7,30.10,SW,227,0.0,3.0,58,0.00,CLR,,0.00,WeatherDisplay:10.37,2013-10-21 14:30:00,
2013-10-21 10:00:00,49.4,31.5,30.08,NNW,340,0.0,5.0,50,0.00,CLR,,0.00,WeatherDisplay:10.37,2013-10-21 15:00:00,
2013-10-21 10:30:00,50.4,32.4,30.10,North,5,1.0,7.0,50,0.00,CLR,,0.00,WeatherDisplay:10.37,2013-10-21 15:30:00,
2013-10-21 11:00:00,52.3,33.2,30.08,NNE,19,1.0,7.0,48,0.00,CLR,,0.00,WeatherDisplay:10.37,2013-10-21 16:00:00,
2013-10-21 11:30:00,53.4,33.1,30.08,ENE,62,1.0,8.0,46,0.00,CLR,,0.00,WeatherDisplay:10.37,2013-10-21 16:30:00,
2013-10-21 12:01:00,55.2,33.7,30.06,North,2,0.0,7.0,44,0.00,CLR,,0.00,WeatherDisplay:10.37,2013-10-21 17:01:00,
2013-10-21 12:31:00,56.5,33.7,30.06,NNE,18,1.0,8.0,42,0.00,CLR,,0.00,WeatherDisplay:10.37,2013-10-21 17:31:00,
2013-10-21 13:01:00,58.0,34.4,30.06,North,351,2.0,7.0,41,0.00,CLR,,0.00,WeatherDisplay:10.37,2013-10-21 18:01:00,
2013-10-21 13:31:00,58.0,33.8,30.04,NE,56,2.0,10.0,40,0.00,CLR,,0.00,WeatherDisplay:10.37,2013-10-21 18:31:00,
2013-10-21 14:01:00,60.4,34.0,30.02,NE,37,2.0,10.0,37,0.00,CLR,,0.00,WeatherDisplay:10.37,2013-10-21 19:01:00,
2013-10-21 14:31:00,60.5,33.4,30.02,NE,55,3.0,10.0,36,0.00,CLR,,0.00,WeatherDisplay:10.37,2013-10-21 19:31:00,
2013-10-21 15:01:00,60.9,33.7,30.01,NNE,17,3.0,10.0,36,0.00,CLR,,0.00,WeatherDisplay:10.37,2013-10-21 20:01:00,
2013-10-21 15:31:00,60.4,33.3,30.02,NE,39,5.0,8.0,36,0.00,CLR,,0.00,WeatherDisplay:10.37,2013-10-21 20:31:00,
2013-10-21 16:01:00,61.2,31.8,30.01,NNE,30,3.0,10.0,33,0.00,CLR,,0.00,WeatherDisplay:10.37,2013-10-21 21:01:00,
2013-10-21 16:31:00,60.2,32.4,30.03,NNE,15,1.0,12.0,35,0.00,CLR,,0.00,WeatherDisplay:10.37,2013-10-21 21:31:00,
2013-10-21 17:01:00,59.6,33.9,30.03,ENE,76,5.0,10.0,38,0.00,CLR,,0.00,WeatherDisplay:10.37,2013-10-21 22:01:00,
2013-10-21 17:31:00,57.5,33.9,30.06,East,80,3.0,10.0,41,0.00,CLR,,0.00,WeatherDisplay:10.37,2013-10-21 22:31:00,
2013-10-21 18:01:00,55.9,33.7,30.07,ENE,57,3.0,9.0,43,0.00,CLR,,0.00,WeatherDisplay:10.37,2013-10-21 23:01:00,
2013-10-21 18:31:00,53.6,33.8,30.06,ENE,68,1.0,10.0,47,0.00,CLR,,0.00,WeatherDisplay:10.37,2013-10-21 23:31:00,
2013-10-21 19:01:00,51.4,33.9,30.10,NNE,30,2.0,9.0,51,0.00,CLR,,0.00,WeatherDisplay:10.37,2013-10-22 00:01:00,
2013-10-21 19:31:00,48.7,34.1,30.15,NNE,12,1.0,5.0,57,0.00,CLR,,0.00,WeatherDisplay:10.37,2013-10-22 00:31:00,
2013-10-21 20:01:00,46.4,34.1,30.18,East,93,1.0,5.0,62,0.00,CLR,,0.00,WeatherDisplay:10.37,2013-10-22 01:01:00,
2013-10-21 20:31:00,41.5,32.4,30.15,East,93,0.0,3.0,70,0.00,CLR,,0.00,WeatherDisplay:10.37,2013-10-22 01:31:00,
2013-10-21 21:01:00,39.2,31.9,30.18,East,93,0.0,2.0,75,0.00,CLR,,0.00,WeatherDisplay:10.37,2013-10-22 02:01:00,
2013-10-21 21:31:00,37.6,31.7,30.13,East,93,0.0,3.0,79,0.00,CLR,,0.00,WeatherDisplay:10.37,2013-10-22 02:31:00,
2013-10-21 22:01:00,37.0,31.7,30.15,East,93,0.0,1.0,81,0.00,CLR,,0.00,WeatherDisplay:10.37,2013-10-22 03:01:00,
2013-10-21 22:31:00,35.7,31.0,30.14,East,93,0.0,0.0,83,0.00,CLR,,0.00,WeatherDisplay:10.37,2013-10-22 03:31:00,
2013-10-21 23:01:00,34.5,30.7,30.15,East,93,0.0,0.0,86,0.00,CLR,,0.00,WeatherDisplay:10.37,2013-10-22 04:01:00,
2013-10-21 23:31:00,33.5,30.0,30.15,East,93,0.0,1.0,87,0.00,CLR,,0.00,WeatherDisplay:10.37,2013-10-22 04:31:00,